Other Public Products
Issued by NWS Charleston, SC

Current Version | Previous Version | Text Only | Print | Product List | Glossary Off
Versions: 1 2 3 4 5 6 7 8 9 10 11 12 13 14 15 16 17 18 19 20 21 22 23 24 25 26 27 28 29 30 31 32 33 34 35 36 37 38 39 40 41 42 43 44 45 46 47 48 49 50

000
FPUS82 KCHS 222027
OPUCHS

TEST...KCHS/KSAV Gateway Observations...TEST
National Weather Service Charleston SC
400 PM EDT TUE AUG 22 2017

NOTE: "fair" indicates few or no clouds below 12,000 feet with no
significant weather and/or obstructions to visibility.

SCZ050-WAZ558-NCZ071-TXZ119-213-PAZ071-DCZ001-FLZ074-172-MI076-
NYZ176-178-MAZ016-IL014-TNZ027-NJZ106-GAZ044-MD014-222100-

...Gateway Observations for Charleston International...

CITY           SKY/WX    TMP DP  RH WIND       PRES   REMARKS
Chas Airport   RAIN      80  77  90 CALM      30.04F
Seattle        SUNNY     80  56  43 W8        30.02S
Charlotte      MOSUNNY   92  72  51 S10       30.01F HX  99
Dallas DFW     MOSUNNY   97  70  41 S8        30.01F HX 103
Dallas Love    MOSUNNY   97  67  37 NW3       30.01F HX 101
Philladelphia  MOSUNNY   90  72  55 S16       29.87F HX  97
Wash National  MOSUNNY   92  73  53 S22G28    29.88F HX 100
Baltimore      MOSUNNY   92  72  51 S13G18    29.86F HX  99
Miami          CLOUDY    91  74  57 E14       29.97F HX 100
Detroit        CLOUDY    77  69  76 W13G18    29.78S
Newark         MOSUNNY   90  71  53 SW16G23   29.83F HX  96
Laguardia      MOSUNNY   90  76  63 SE12G22   29.83F HX 101
J F K          MOSUNNY   84  77  79 S22       29.87F HX  94
Boston Logan   MOSUNNY   90  69  50 S20G29    29.80F HX  94
Ft. Lauderdale CLOUDY    89  77  67 E14       29.96F HX 101
Chicago O`Hare MOSUNNY   80  56  43 NW18G25   29.90S
Chicago Midway PTSUNNY   81  55  40 W20G26    29.89F
Houston Bush   PTSUNNY   94  71  47 SE7       30.03F HX 101
Houston Hobby  PTSUNNY   94  69  44 E7        30.01F HX  99
Nashville      PTSUNNY   90  75  61 SW7G17    29.96F HX 100
Atlanta        MOSUNNY   91  66  43 W8        30.06F HX  93

$$

GAZ044-118-TXZ119-213-NCZ071-DCZ001-MDZ014-506-PAZ021-071-NJZ106-
NYZ176-178-MAZ106-OHZ011-021-055-MIZ076-KYZ091-ILZ014-INZ047-
MNZ060-ONZ431-222100-

...Gateway Observations for Savannah International...

CITY           SKY/WX    TMP DP  RH WIND       PRES   REMARKS
Savannah Arpt  CLOUDY    82  75  79 NE7       30.05F
Atlanta        MOSUNNY   91  66  43 W8        30.06F HX  93
Charlotte      MOSUNNY   92  72  51 S10       30.01F HX  99
Dallas DFW     MOSUNNY   97  70  41 S8        30.01F HX 103
Houston Bush   PTSUNNY   94  71  47 SE7       30.03F HX 101
Wash National  MOSUNNY   92  73  53 S22G28    29.88F HX 100
Wash Dulles    MOSUNNY   91  74  57 S16G22    29.87F HX 100
Baltimore      MOSUNNY   92  72  51 S13G18    29.86F HX  99
Philadelphia   MOSUNNY   90  72  55 S16       29.87F HX  97
Newark         MOSUNNY   90  71  53 SW16G23   29.83F HX  96
Laguardia      MOSUNNY   90  76  63 SE12G22   29.83F HX 101
J F K          MOSUNNY   84  77  79 S22       29.87F HX  94
Boston         MOSUNNY   90  69  50 S20G29    29.80F HX  94
Pittsburg      TSTM      75  72  90 SW10      29.86S
Akron          LGT RAIN  78  62  57 W13G25    29.84F
Cleveland      PTSUNNY   76  70  82 W16       29.82F
Cincinnati     CLOUDY    80  72  76 W9G18     29.92F
Columbus       CLOUDY    76  69  80 W9        29.88F
Detroit        CLOUDY    77  69  76 W13G18    29.78S
Chicago O`Hare MOSUNNY   80  56  43 NW18G25   29.90S
Minneapolis    MOSUNNY   75  47  36 NW21G29   30.03F
Indianapolis   PTSUNNY   81  68  64 W16       29.91F
Toronto Canada PTSUNNY   77  66  69 W24G33    29.64S

$$




USA.gov is the U.S. government's official web portal to all federal, state and local government web resources and services.